TimeADT,TemperatureF,Dew PointF,Humidity,Sea Level PressureIn,VisibilityMPH,Wind Direction,Wind SpeedMPH,Gust SpeedMPH,PrecipitationIn,Events,Conditions,WindDirDegrees,DateUTC
12:00 AM,39.2,33.8,81,29.88,15.0,West,5.8,-,N/A,,Scattered Clouds,260,2013-10-26 03:00:00
1:00 AM,41.0,33.8,76,29.89,15.0,West,6.9,-,N/A,,Mostly Cloudy,270,2013-10-26 04:00:00
2:00 AM,41.0,33.8,76,29.90,15.0,West,5.8,-,N/A,,Mostly Cloudy,270,2013-10-26 05:00:00
3:00 AM,40,34,70,29.91,15,West,5.8,,,,Blowing Sand,260,2013-10-26 06:00:00
3:00 AM,39.2,33.8,81,29.91,15.0,West,5.8,-,N/A,,Mostly Cloudy,260,2013-10-26 06:00:00
4:00 AM,39.2,32.0,75,29.91,15.0,West,5.8,-,N/A,,Mostly Cloudy,260,2013-10-26 07:00:00
5:00 AM,37.4,32.0,81,29.91,15.0,West,6.9,-,N/A,,Mostly Cloudy,270,2013-10-26 08:00:00
6:00 AM,35.6,32.0,87,29.93,15.0,West,5.8,-,N/A,,Mostly Cloudy,260,2013-10-26 09:00:00
7:00 AM,35.6,32.0,87,29.94,15.0,West,4.6,-,N/A,,Partly Cloudy,270,2013-10-26 10:00:00
8:00 AM,33.8,30.2,87,29.96,15.0,WSW,5.8,-,N/A,,Partly Cloudy,250,2013-10-26 11:00:00
9:00 AM,38,33,77,29.99,15,WSW,6.9,,,,Scattered Clouds,250,2013-10-26 12:00:00
9:00 AM,37.4,33.8,87,29.99,15.0,WSW,6.9,-,N/A,,Partly Cloudy,250,2013-10-26 12:00:00
10:00 AM,41.0,33.8,76,29.99,15.0,West,11.5,-,N/A,,Scattered Clouds,260,2013-10-26 13:00:00
11:00 AM,44.6,35.6,71,29.99,15.0,WSW,6.9,-,N/A,,Mostly Cloudy,250,2013-10-26 14:00:00
12:00 PM,42.8,33.8,70,30.00,15.0,West,10.4,-,N/A,,Mostly Cloudy,260,2013-10-26 15:00:00
1:00 PM,44.6,33.8,66,29.99,15.0,WSW,9.2,18.4,N/A,,Mostly Cloudy,250,2013-10-26 16:00:00
2:00 PM,46.4,32.0,57,29.99,15.0,WSW,10.4,-,N/A,,Mostly Cloudy,240,2013-10-26 17:00:00
3:00 PM,46,31,44,29.98,15,WSW,9.2,,,,Partly Cloudy,250,2013-10-26 18:00:00
3:00 PM,46.4,30.2,53,29.98,15.0,WSW,8.1,-,N/A,,Mostly Cloudy,250,2013-10-26 18:00:00
4:00 PM,44.6,30.2,57,29.99,15.0,West,11.5,-,N/A,,Mostly Cloudy,260,2013-10-26 19:00:00
5:00 PM,44.6,30.2,57,29.99,15.0,WSW,9.2,-,N/A,,Mostly Cloudy,250,2013-10-26 20:00:00
6:00 PM,44.6,30.2,57,30.00,15.0,SW,9.2,-,N/A,,Mostly Cloudy,230,2013-10-26 21:00:00
7:00 PM,42.8,28.4,57,30.00,15.0,SW,10.4,-,N/A,,Mostly Cloudy,230,2013-10-26 22:00:00
8:00 PM,41.0,30.2,65,30.01,15.0,SW,9.2,-,N/A,,Mostly Cloudy,230,2013-10-26 23:00:00
9:00 PM,42,31,56,30.01,15,SW,8.1,,,,Overcast,230,2013-10-27 00:00:00
9:00 PM,41.0,32.0,70,30.01,15.0,SW,8.1,-,N/A,,Overcast,230,2013-10-27 00:00:00
10:00 PM,41.0,32.0,70,30.01,15.0,SW,6.9,-,N/A,,Overcast,230,2013-10-27 01:00:00
11:00 PM,42.8,33.8,70,30.01,15.0,SSW,9.2,-,N/A,Rain,Light Rain,200,2013-10-27 02:00:00